Location: A�t �Alizem
(31.2076°N, 8.7872°W)
Time: 06:20:42
(UTC+00:00)

Sakura Rocket - Pass Details

Date: 27 November 2020
Orbit: 476 x 1742 km, 28.7° (Epoch: 25 January)

Event Time Altitude Azimuth Distance (km) Brightness Sun altitude
Rises 19:06:05 0° 240° (WSW) 2,589 7.6 -19.7°
Reaches altitude 10° 19:08:11 10° 233° (SW) 1,782 6.4 -20.1°
Maximum altitude 19:11:58 40° 162° (SSE) 903 3.8 -20.9°
Enters shadow 19:12:51 36° 134° (SE) 1,004 3.8 -21.1°
